TimeEDT,TemperatureF,Dew PointF,Humidity,Sea Level PressureIn,VisibilityMPH,Wind Direction,Wind SpeedMPH,Gust SpeedMPH,PrecipitationIn,Events,Conditions,WindDirDegrees,DateUTC
12:14 AM,44.2,41.4,90,30.13,10.0,Calm,Calm,-,N/A,,Clear,0,2013-09-15 04:14:00
12:33 AM,43.0,40.1,90,30.13,10.0,Calm,Calm,-,N/A,,Clear,0,2013-09-15 04:33:00
12:54 AM,43.3,41.2,92,30.13,10.0,Calm,Calm,-,N/A,,Clear,0,2013-09-15 04:54:00
1:14 AM,49.3,43.3,80,30.12,10.0,South,3.5,-,N/A,,Clear,180,2013-09-15 05:14:00
1:33 AM,47.5,41.9,81,30.13,10.0,Calm,Calm,-,N/A,,Clear,0,2013-09-15 05:33:00
1:54 AM,47.3,41.7,81,30.13,10.0,Calm,Calm,-,N/A,,Clear,0,2013-09-15 05:54:00
2:14 AM,46.9,42.1,83,30.13,10.0,Calm,Calm,-,N/A,,Clear,0,2013-09-15 06:14:00
2:33 AM,45.9,41.0,83,30.14,10.0,Calm,Calm,-,N/A,,Clear,0,2013-09-15 06:33:00
2:54 AM,44.6,41.2,88,30.14,10.0,Calm,Calm,-,N/A,,Clear,0,2013-09-15 06:54:00
3:14 AM,44.8,42.4,91,30.14,10.0,Calm,Calm,-,N/A,,Clear,0,2013-09-15 07:14:00
3:33 AM,43.9,40.1,87,30.13,10.0,Calm,Calm,-,N/A,,Clear,0,2013-09-15 07:33:00
3:54 AM,41.4,38.7,90,30.14,10.0,Calm,Calm,-,N/A,,Clear,0,2013-09-15 07:54:00
4:14 AM,40.1,38.1,93,30.14,7.0,Calm,Calm,-,N/A,,Clear,0,2013-09-15 08:14:00
4:33 AM,41.7,39.9,93,30.14,10.0,Calm,Calm,-,N/A,,Clear,0,2013-09-15 08:33:00
4:54 AM,42.4,40.6,93,30.14,10.0,Calm,Calm,-,N/A,,Clear,0,2013-09-15 08:54:00
5:14 AM,40.8,39.0,93,30.15,7.0,Calm,Calm,-,N/A,,Clear,0,2013-09-15 09:14:00
5:33 AM,39.6,37.9,94,30.15,7.0,Calm,Calm,-,N/A,,Clear,0,2013-09-15 09:33:00
5:54 AM,41.9,40.3,94,30.15,10.0,Calm,Calm,-,N/A,,Clear,0,2013-09-15 09:54:00
6:14 AM,40.8,39.2,94,30.15,2.5,Calm,Calm,-,N/A,,Clear,0,2013-09-15 10:14:00
6:33 AM,39.6,38.1,95,30.15,0.5,Calm,Calm,-,N/A,,Unknown,0,2013-09-15 10:33:00
6:54 AM,39.6,38.1,95,30.15,0.5,Calm,Calm,-,N/A,,Unknown,0,2013-09-15 10:54:00
7:14 AM,39.2,37.8,95,30.15,0.5,Calm,Calm,-,N/A,,Unknown,0,2013-09-15 11:14:00
7:33 AM,40.1,38.8,95,30.16,3.0,Calm,Calm,-,N/A,,Clear,0,2013-09-15 11:33:00
7:54 AM,41.9,40.6,95,30.16,3.0,Calm,Calm,-,N/A,,Clear,0,2013-09-15 11:54:00
8:14 AM,44.2,42.8,95,30.16,5.0,Calm,Calm,-,N/A,,Clear,0,2013-09-15 12:14:00
8:33 AM,48.4,46.8,94,30.16,7.0,Calm,Calm,-,N/A,,Clear,0,2013-09-15 12:33:00
8:54 AM,50.9,47.3,87,30.16,10.0,Calm,Calm,-,N/A,,Clear,0,2013-09-15 12:54:00
9:14 AM,53.4,48.2,82,30.17,10.0,Calm,Calm,-,N/A,,Clear,0,2013-09-15 13:14:00
9:33 AM,55.2,48.4,78,30.17,10.0,Calm,Calm,-,N/A,,Clear,0,2013-09-15 13:33:00
9:53 AM,57.4,48.9,73,30.17,10.0,WSW,3.5,-,N/A,,Clear,240,2013-09-15 13:53:00
10:13 AM,59.0,48.0,67,30.17,10.0,SW,6.9,-,N/A,,Clear,220,2013-09-15 14:13:00
10:33 AM,60.1,48.7,66,30.17,10.0,WSW,5.8,-,N/A,,Clear,250,2013-09-15 14:33:00
10:54 AM,61.7,48.6,62,30.16,10.0,WSW,4.6,-,N/A,,Clear,240,2013-09-15 14:54:00
11:13 AM,62.6,47.8,58,30.16,10.0,WSW,6.9,-,N/A,,Clear,250,2013-09-15 15:13:00
11:33 AM,63.5,47.7,56,30.16,10.0,SSW,4.6,-,N/A,,Clear,210,2013-09-15 15:33:00
11:54 AM,64.0,47.5,55,30.15,10.0,South,6.9,-,N/A,,Clear,190,2013-09-15 15:54:00
12:13 PM,65.7,47.3,51,30.15,7.0,SW,6.9,-,N/A,,Clear,230,2013-09-15 16:13:00
12:33 PM,65.5,44.6,47,30.14,10.0,WSW,8.1,-,N/A,,Clear,240,2013-09-15 16:33:00
12:54 PM,68.2,44.2,42,30.13,10.0,SSW,4.6,-,N/A,,Clear,210,2013-09-15 16:54:00
1:13 PM,68.9,43.3,40,30.12,10.0,SW,4.6,-,N/A,,Clear,220,2013-09-15 17:13:00
1:33 PM,70.3,43.2,37,30.12,10.0,WSW,6.9,-,N/A,,Clear,250,2013-09-15 17:33:00
1:54 PM,71.1,40.3,33,30.12,10.0,SW,9.2,-,N/A,,Clear,230,2013-09-15 17:54:00
2:13 PM,69.4,41.7,37,30.11,10.0,SSW,8.1,-,N/A,,Clear,210,2013-09-15 18:13:00
2:33 PM,69.3,41.4,36,30.10,10.0,SSW,3.5,-,N/A,,Clear,210,2013-09-15 18:33:00
2:53 PM,71.1,41.0,34,30.09,10.0,SSW,5.8,-,N/A,,Clear,200,2013-09-15 18:53:00
3:14 PM,70.7,39.6,32,30.08,10.0,SW,6.9,-,N/A,,Clear,220,2013-09-15 19:14:00
3:34 PM,71.4,38.7,30,30.08,10.0,SW,10.4,-,N/A,,Clear,230,2013-09-15 19:34:00
3:53 PM,73.2,39.6,30,30.07,10.0,South,8.1,-,N/A,,Clear,190,2013-09-15 19:53:00
4:13 PM,74.1,39.0,28,30.06,10.0,SW,9.2,-,N/A,,Clear,220,2013-09-15 20:13:00
4:32 PM,73.6,39.4,29,30.06,10.0,SW,8.1,-,N/A,,Clear,230,2013-09-15 20:32:00
4:53 PM,72.7,40.6,31,30.06,10.0,SSW,8.1,-,N/A,,Clear,200,2013-09-15 20:53:00
5:14 PM,72.7,39.7,30,30.05,10.0,SW,6.9,-,N/A,,Clear,220,2013-09-15 21:14:00
5:33 PM,72.7,40.1,31,30.05,10.0,WSW,8.1,-,N/A,,Scattered Clouds,250,2013-09-15 21:33:00
5:53 PM,70.9,40.6,33,30.04,10.0,WSW,4.6,-,N/A,,Overcast,240,2013-09-15 21:53:00
6:14 PM,70.2,42.1,36,30.05,10.0,WSW,10.4,-,N/A,,Overcast,240,2013-09-15 22:14:00
6:33 PM,69.3,43.7,40,30.05,10.0,WSW,5.8,-,N/A,,Overcast,240,2013-09-15 22:33:00
6:53 PM,68.4,46.0,45,30.05,10.0,WSW,4.6,-,N/A,,Overcast,240,2013-09-15 22:53:00
7:14 PM,68.0,46.4,46,30.06,10.0,West,3.5,-,N/A,,Overcast,280,2013-09-15 23:14:00
7:33 PM,67.8,46.9,47,30.07,10.0,WNW,3.5,-,N/A,,Overcast,300,2013-09-15 23:33:00
7:53 PM,66.7,48.4,52,30.07,10.0,Calm,Calm,-,N/A,,Overcast,0,2013-09-15 23:53:00
8:14 PM,63.9,51.8,65,30.08,10.0,Calm,Calm,-,N/A,,Overcast,0,2013-09-16 00:14:00
8:33 PM,63.1,52.0,67,30.07,10.0,Calm,Calm,-,N/A,,Overcast,0,2013-09-16 00:33:00
8:53 PM,62.2,52.7,71,30.07,10.0,Calm,Calm,-,N/A,,Overcast,0,2013-09-16 00:53:00
9:14 PM,61.7,54.0,76,30.07,10.0,Calm,Calm,-,N/A,,Overcast,0,2013-09-16 01:14:00
9:33 PM,61.9,54.3,76,30.08,10.0,Calm,Calm,-,N/A,,Overcast,0,2013-09-16 01:33:00
9:53 PM,63.9,52.3,66,30.09,10.0,NW,11.5,16.1,N/A,,Overcast,320,2013-09-16 01:53:00
10:14 PM,61.3,52.7,73,30.09,4.0,North,4.6,-,0.02,,Overcast,360,2013-09-16 02:14:00
10:33 PM,59.2,53.2,81,30.10,4.0,North,11.5,-,0.06,,Overcast,360,2013-09-16 02:33:00
10:53 PM,58.1,52.7,82,30.09,10.0,NNE,8.1,-,0.06,,Overcast,20,2013-09-16 02:53:00
11:14 PM,57.6,53.1,85,30.11,10.0,North,11.5,-,N/A,,Overcast,10,2013-09-16 03:14:00
11:33 PM,57.4,53.2,86,30.11,7.0,NNE,12.7,-,N/A,,Overcast,20,2013-09-16 03:33:00
11:53 PM,57.2,53.4,87,30.12,10.0,North,10.4,-,N/A,,Overcast,10,2013-09-16 03:53:00